Location: Centerville
(32.8776°N, 96.6203°W)
Time: 02:11:28
(UTC+00:00)

Cosmos 1758 - Pass Details

Date: 17 June 2021
Orbit: 538 x 562 km, 82.5° (Epoch: 27 July)

Event Time Altitude Azimuth Distance (km) Brightness Sun altitude
Rises 03:03:28 0° 2° (N) 2,703 7.5 -15.7°
Reaches altitude 10° 03:05:44 10° 11° (N) 1,804 6.4 -16.0°
Maximum altitude 03:09:28 39° 81° (E) 820 3.9 -16.6°
Enters shadow 03:10:23 33° 114° (ESE) 909 3.9 -16.7°
